Regional Weather Roundup
Issued by NWS

Home | Current Version | Previous Version | Graphics & Text | Print | Product List | Glossary On
Versions: 1 2 3 4 5 6 7 8 9 10 11 12 13 14 15 16 17 18 19 20 21 22 23 24 25 26 27 28 29 30 31 32 33 34 35 36 37 38 39 40 41 42 43 44 45 46 47 48 49 50
000
ASUS43 KBIS 220410
RWRND
NORTH DAKOTA REGIONAL WEATHER ROUNDUP
NATIONAL WEATHER SERVICE EASTERN NORTH DAKOTA/GRAND FORKS ND
1100 PM CDT SAT APR 21 2018

  NOTE: "FAIR" INDICATES FEW OR NO CLOUDS BELOW 12,000 FEET WITH NO
  SIGNIFICANT WEATHER AND/OR OBSTRUCTIONS TO VISIBILITY.

NDZ001>003-009>011-017-220500-
...NORTHWEST NORTH DAKOTA...

CITY           SKY/WX    TMP DP  RH WIND       PRES   REMARKS
WILLISTON      FAIR      54  40  59 S15G28    29.97S
MINOT          FAIR      50  36  58 S21G28    30.08R
MINOT AFB      NOT AVBL
$$

NDZ018>021-031>035-040>046-220500-
...SOUTHWEST NORTH DAKOTA...

CITY           SKY/WX    TMP DP  RH WIND       PRES   REMARKS
BISMARCK       FAIR      46  36  68 S14       30.18R
DICKINSON      FAIR      44  37  76 S17       30.07R
GARRISON         N/A     42  35  76 S13       30.12R
HETTINGER      FAIR      40  35  83 S12       30.14R WCI  33
$$

NDZ004>008-012>016-024-026-027-054-220500-
...NORTHEAST NORTH DAKOTA...

CITY           SKY/WX    TMP DP  RH WIND       PRES   REMARKS
GRAND FORKS    FAIR      48  43  82 SE12      30.23S
GRAND FORKS AF FAIR      46  43  87 SE10      30.23S
DEVILS LAKE    FAIR      45  35  68 S12       30.20R
$$

NDZ022-023-025-028>030-036>039-047>053-220500-
...SOUTHEAST NORTH DAKOTA...

CITY           SKY/WX    TMP DP  RH WIND       PRES   REMARKS
JAMESTOWN      FAIR      44  37  76 S10       30.23R
FARGO          FAIR      50  41  71 S15       30.27S
WAHPETON       FAIR      43  36  75 S12       30.31S
$$




USA.gov is the U.S. government's official web portal to all federal, state and local government web resources and services.